| time (UTC) | temp C | wind direction | speed KPH | gust KPH | rain 1hr cm | rain 24hr cm | rain mn cm | humidity % | barometer mb |
| 20260502160341 | 13 | 132 | 1.6 | 3.2 | 0.00 | 0.00 | 0.00 | 33 | 1015.2 |
| 20260502152316 | 12 | 90 | 1.6 | 1.6 | 0.00 | 0.00 | 0.00 | 41 | 1015.5 |
| 20260502151814 | 12 | 57 | 1.6 | 1.6 | 0.00 | 0.00 | 0.00 | 39 | 1015.4 |
| 20260502151310 | 12 | 99 | 0.0 | 1.6 | 0.00 | 0.00 | 0.00 | 43 | 1015.6 |
| 20260502150808 | 12 | 63 | 1.6 | 1.6 | 0.00 | 0.00 | 0.00 | 38 | 1015.4 |
| 20260502150304 | 12 | 39 | 4.8 | 4.8 | 0.00 | 0.00 | 0.00 | 38 | 1015.3 |
| 20260502130653 | 10 | 147 | 0.0 | 0.0 | 0.00 | 0.00 | 0.00 | 46 | 1015.7 |
| 20260502130150 | 10 | 66 | 3.2 | 4.8 | 0.00 | 0.00 | 0.00 | 45 | 1015.4 |
| 20260502123636 | 10 | 57 | 1.6 | 1.6 | 0.00 | 0.00 | 0.00 | 45 | 1015.4 |
| 20260502123133 | 10 | 80 | 1.6 | 1.6 | 0.00 | 0.00 | 0.00 | 48 | 1015.5 |
| 20260502122629 | 10 | 353 | 4.8 | 4.8 | 0.00 | 0.00 | 0.00 | 46 | 1015.2 |
| 20260502122126 | 10 | 93 | 1.6 | 1.6 | 0.00 | 0.00 | 0.00 | 47 | 1015.6 |
| 20260502121624 | 10 | 95 | 0.0 | 0.0 | 0.00 | 0.00 | 0.00 | 49 | 1015.6 |
| 20260502121121 | 10 | 95 | 1.6 | 1.6 | 0.00 | 0.00 | 0.00 | 48 | 1015.2 |
| 20260502120618 | 10 | 95 | 0.0 | 0.0 | 0.00 | 0.00 | 0.00 | 49 | 1015.5 |
| 20260502120114 | 10 | 92 | 1.6 | 1.6 | 0.00 | 0.00 | 0.00 | 50 | 1015.3 |
| 20260502115613 | 10 | 75 | 0.0 | 1.6 | 0.00 | 0.00 | 0.00 | 50 | 1015.3 |
| 20260502115108 | 10 | 76 | 0.0 | 1.6 | 0.00 | 0.00 | 0.00 | 48 | 1015.4 |
| 20260502114604 | 10 | 77 | 0.0 | 0.0 | 0.00 | 0.00 | 0.00 | 49 | 1015.3 |
| 20260502114102 | 10 | 65 | 1.6 | 3.2 | 0.00 | 0.00 | 0.00 | 48 | 1015.1 |
| 20260502113559 | 9 | 69 | 0.0 | 0.0 | 0.00 | 0.00 | 0.00 | 51 | 1015.1 |
| 20260502113057 | 9 | 47 | 1.6 | 3.2 | 0.00 | 0.00 | 0.00 | 48 | 1014.9 |
| 20260502112555 | 9 | 115 | 0.0 | 0.0 | 0.00 | 0.00 | 0.00 | 49 | 1014.8 |
| 20260502112052 | 10 | 86 | 0.0 | 0.0 | 0.00 | 0.00 | 0.00 | 52 | 1015.0 |
| 20260502111549 | 9 | 83 | 0.0 | 0.0 | 0.00 | 0.00 | 0.00 | 49 | 1015.2 |
| 20260502111047 | 9 | 22 | 1.6 | 3.2 | 0.00 | 0.00 | 0.00 | 48 | 1014.8 |
| 20260502110544 | 9 | 135 | 1.6 | 1.6 | 0.00 | 0.00 | 0.00 | 48 | 1014.8 |
| 20260502110042 | 9 | 259 | 0.0 | 0.0 | 0.00 | 0.00 | 0.00 | 48 | 1014.7 |
| 20260502105539 | 10 | 262 | 1.6 | 3.2 | 0.00 | 0.00 | 0.00 | 48 | 1014.8 |
| 20260502105037 | 9 | 68 | 1.6 | 3.2 | 0.00 | 0.00 | 0.00 | 49 | 1014.6 |
| 20260502104533 | 9 | 151 | 0.0 | 1.6 | 0.00 | 0.00 | 0.00 | 49 | 1014.8 |
| 20260502104031 | 9 | 151 | 0.0 | 1.6 | 0.00 | 0.00 | 0.00 | 48 | 1015.0 |
| 20260502103529 | 9 | 148 | 0.0 | 1.6 | 0.00 | 0.00 | 0.00 | 47 | 1015.0 |
| 20260502103026 | 9 | 107 | 1.6 | 1.6 | 0.00 | 0.00 | 0.00 | 47 | 1015.0 |
| 20260502102522 | 9 | 133 | 0.0 | 0.0 | 0.00 | 0.00 | 0.00 | 47 | 1015.1 |
| 20260502102020 | 9 | 139 | 0.0 | 0.0 | 0.00 | 0.00 | 0.00 | 46 | 1014.8 |
| 20260502101517 | 10 | 139 | 0.0 | 0.0 | 0.00 | 0.00 | 0.00 | 46 | 1015.1 |
| 20260502101016 | 10 | 139 | 0.0 | 0.0 | 0.00 | 0.00 | 0.00 | 44 | 1014.9 |
| 20260502100514 | 10 | 176 | 1.6 | 1.6 | 0.00 | 0.00 | 0.00 | 43 | 1015.1 |
| 20260502091448 | 10 | 277 | 3.2 | 4.8 | 0.00 | 0.00 | 0.00 | 46 | 1014.5 |
| 20260502090946 | 10 | 301 | 3.2 | 4.8 | 0.00 | 0.00 | 0.00 | 46 | 1014.7 |
| 20260502090442 | 10 | 172 | 0.0 | 1.6 | 0.00 | 0.00 | 0.00 | 47 | 1014.9 |
| 20260502071337 | 10 | 129 | 0.0 | 0.0 | 0.00 | 0.00 | 0.00 | 69 | 1014.5 |
| 20260502070835 | 10 | 130 | 0.0 | 0.0 | 0.00 | 0.00 | 0.00 | 68 | 1014.4 |
| 20260502070332 | 10 | 129 | 0.0 | 0.0 | 0.00 | 0.00 | 0.00 | 69 | 1014.6 |
| 20260502065831 | 10 | 130 | 0.0 | 0.0 | 0.00 | 0.00 | 0.00 | 68 | 1014.3 |
| 20260502065329 | 10 | 130 | 0.0 | 0.0 | 0.00 | 0.00 | 0.00 | 67 | 1014.5 |
| 20260502064827 | 10 | 130 | 0.0 | 0.0 | 0.00 | 0.00 | 0.00 | 66 | 1014.4 |
| 20260502064325 | 10 | 129 | 0.0 | 0.0 | 0.00 | 0.00 | 0.00 | 67 | 1014.4 |
| 20260502063821 | 10 | 130 | 0.0 | 0.0 | 0.00 | 0.00 | 0.00 | 64 | 1014.5 |
| 20260502063319 | 10 | 130 | 0.0 | 0.0 | 0.00 | 0.00 | 0.00 | 64 | 1014.3 |
| 20260502062816 | 10 | 116 | 0.0 | 0.0 | 0.00 | 0.00 | 0.00 | 63 | 1014.5 |
| 20260502062314 | 11 | 116 | 0.0 | 0.0 | 0.00 | 0.00 | 0.00 | 61 | 1014.6 |
| 20260502061812 | 11 | 141 | 1.6 | 1.6 | 0.00 | 0.00 | 0.00 | 59 | 1014.7 |
| 20260502061310 | 11 | 139 | 0.0 | 1.6 | 0.00 | 0.00 | 0.00 | 60 | 1014.9 |
| 20260502060805 | 11 | 137 | 0.0 | 1.6 | 0.00 | 0.00 | 0.00 | 59 | 1014.6 |
| 20260502060300 | 11 | 114 | 0.0 | 0.0 | 0.00 | 0.00 | 0.00 | 58 | 1014.7 |
| 20260502055759 | 11 | 118 | 0.0 | 1.6 | 0.00 | 0.00 | 0.00 | 56 | 1014.8 |
| 20260502055256 | 11 | 70 | 1.6 | 3.2 | 0.00 | 0.00 | 0.00 | 56 | 1014.7 |
| 20260502054755 | 11 | 103 | 0.0 | 0.0 | 0.00 | 0.00 | 0.00 | 60 | 1014.6 |
| 20260502054252 | 11 | 76 | 0.0 | 1.6 | 0.00 | 0.00 | 0.00 | 59 | 1014.7 |
| 20260502053750 | 11 | 111 | 0.0 | 1.6 | 0.00 | 0.00 | 0.00 | 57 | 1014.5 |
| 20260502053247 | 11 | 95 | 0.0 | 1.6 | 0.00 | 0.00 | 0.00 | 56 | 1014.6 |
| 20260502052745 | 11 | 134 | 0.0 | 0.0 | 0.00 | 0.00 | 0.00 | 57 | 1014.5 |
| 20260502052243 | 12 | 145 | 0.0 | 1.6 | 0.00 | 0.00 | 0.00 | 56 | 1014.6 |
| 20260502051740 | 12 | 147 | 0.0 | 0.0 | 0.00 | 0.00 | 0.00 | 56 | 1014.7 |
| 20260502051239 | 12 | 130 | 1.6 | 1.6 | 0.00 | 0.00 | 0.00 | 57 | 1014.6 |
| 20260502050735 | 12 | 141 | 0.0 | 1.6 | 0.00 | 0.00 | 0.00 | 54 | 1014.6 |
| 20260502050231 | 12 | 166 | 0.0 | 1.6 | 0.00 | 0.00 | 0.00 | 52 | 1014.6 |
| 20260502045728 | 12 | 275 | 1.6 | 1.6 | 0.00 | 0.00 | 0.00 | 54 | 1014.6 |
| 20260502045225 | 12 | 126 | 0.0 | 1.6 | 0.00 | 0.00 | 0.00 | 55 | 1014.6 |
| 20260502044722 | 13 | 161 | 1.6 | 1.6 | 0.00 | 0.00 | 0.00 | 53 | 1014.6 |
| 20260502044218 | 13 | 177 | 1.6 | 3.2 | 0.00 | 0.00 | 0.00 | 53 | 1014.5 |
| 20260502043715 | 13 | 261 | 1.6 | 3.2 | 0.00 | 0.00 | 0.00 | 54 | 1014.3 |
| 20260502043213 | 13 | 256 | 3.2 | 3.2 | 0.00 | 0.00 | 0.00 | 54 | 1014.2 |
| 20260502042712 | 13 | 168 | 0.0 | 1.6 | 0.00 | 0.00 | 0.00 | 54 | 1014.2 |
| 20260502042210 | 13 | 264 | 3.2 | 3.2 | 0.00 | 0.00 | 0.00 | 54 | 1014.4 |
| 20260502041707 | 13 | 295 | 4.8 | 6.4 | 0.00 | 0.00 | 0.00 | 53 | 1014.2 |
| 20260502041204 | 13 | 221 | 3.2 | 3.2 | 0.00 | 0.00 | 0.00 | 53 | 1014.2 |
| 20260502040701 | 13 | 283 | 4.8 | 4.8 | 0.00 | 0.00 | 0.00 | 53 | 1014.4 |
| 20260502040158 | 13 | 278 | 4.8 | 4.8 | 0.00 | 0.00 | 0.00 | 54 | 1014.0 |
| 20260502035654 | 14 | 272 | 1.6 | 1.6 | 0.00 | 0.00 | 0.00 | 53 | 1014.2 |
| 20260502035151 | 14 | 15 | 1.6 | 1.6 | 0.00 | 0.00 | 0.00 | 53 | 1014.2 |
| 20260502034649 | 14 | 50 | 0.0 | 0.0 | 0.00 | 0.00 | 0.00 | 55 | 1014.1 |
| 20260502034147 | 14 | 167 | 0.0 | 1.6 | 0.00 | 0.00 | 0.00 | 53 | 1014.1 |
| 20260502033645 | 14 | 149 | 0.0 | 0.0 | 0.00 | 0.00 | 0.00 | 54 | 1014.2 |
| 20260502033142 | 14 | 197 | 1.6 | 3.2 | 0.00 | 0.00 | 0.00 | 53 | 1013.9 |
| 20260502032638 | 14 | 169 | 1.6 | 1.6 | 0.00 | 0.00 | 0.00 | 53 | 1013.8 |
| 20260502032135 | 14 | 120 | 0.0 | 0.0 | 0.00 | 0.00 | 0.00 | 54 | 1013.9 |
| 20260502031633 | 14 | 120 | 0.0 | 0.0 | 0.00 | 0.00 | 0.00 | 53 | 1013.8 |
| 20260502031130 | 14 | 73 | 1.6 | 1.6 | 0.00 | 0.00 | 0.00 | 52 | 1013.8 |
| 20260502030629 | 15 | 88 | 1.6 | 3.2 | 0.00 | 0.00 | 0.00 | 53 | 1013.8 |
| 20260502030127 | 15 | 197 | 3.2 | 3.2 | 0.00 | 0.00 | 0.00 | 53 | 1013.5 |
| 20260502025624 | 15 | 103 | 1.6 | 1.6 | 0.00 | 0.00 | 0.00 | 50 | 1013.5 |
| 20260502025122 | 15 | 163 | 0.0 | 1.6 | 0.00 | 0.00 | 0.00 | 50 | 1013.6 |
| 20260502024619 | 15 | 12 | 3.2 | 3.2 | 0.00 | 0.00 | 0.00 | 50 | 1013.5 |
| 20260502024117 | 15 | 231 | 3.2 | 4.8 | 0.00 | 0.00 | 0.00 | 49 | 1013.7 |
| 20260502023615 | 15 | 61 | 0.0 | 1.6 | 0.00 | 0.00 | 0.00 | 50 | 1013.3 |
| 20260502023112 | 15 | 333 | 4.8 | 9.7 | 0.00 | 0.00 | 0.00 | 50 | 1013.3 |
| 20260502022609 | 15 | 25 | 6.4 | 9.7 | 0.00 | 0.00 | 0.00 | 50 | 1013.3 |
| 20260502022106 | 14 | 80 | 1.6 | 1.6 | 0.00 | 0.00 | 0.00 | 55 | 1013.0 |
| 20260502021603 | 14 | 118 | 1.6 | 1.6 | 0.00 | 0.00 | 0.00 | 55 | 1013.1 |
| 20260502021100 | 14 | 65 | 1.6 | 1.6 | 0.00 | 0.00 | 0.00 | 57 | 1012.7 |
| 20260502020557 | 14 | 74 | 1.6 | 1.6 | 0.00 | 0.00 | 0.00 | 60 | 1012.5 |
| 20260502020054 | 14 | 354 | 3.2 | 3.2 | 0.00 | 0.00 | 0.00 | 60 | 1012.1 |
| 20260502015552 | 15 | 110 | 0.0 | 0.0 | 0.00 | 0.00 | 0.00 | 60 | 1012.3 |
| 20260502015048 | 15 | 109 | 0.0 | 1.6 | 0.00 | 0.00 | 0.00 | 59 | 1012.2 |
| 20260502014545 | 14 | 153 | 1.6 | 3.2 | 0.00 | 0.00 | 0.00 | 59 | 1012.2 |
| 20260502014042 | 14 | 123 | 0.0 | 0.0 | 0.00 | 0.00 | 0.00 | 59 | 1012.2 |
| 20260502013537 | 14 | 122 | 1.6 | 1.6 | 0.00 | 0.00 | 0.00 | 61 | 1012.1 |
| 20260502013034 | 14 | 80 | 0.0 | 1.6 | 0.00 | 0.00 | 0.00 | 60 | 1012.0 |
| 20260502012532 | 14 | 68 | 1.6 | 1.6 | 0.00 | 0.00 | 0.00 | 61 | 1011.9 |
| 20260502012029 | 14 | 89 | 0.0 | 0.0 | 0.00 | 0.00 | 0.00 | 60 | 1011.6 |
| 20260502011526 | 14 | 89 | 0.0 | 0.0 | 0.00 | 0.00 | 0.00 | 60 | 1011.6 |
| 20260502011022 | 14 | 90 | 0.0 | 0.0 | 0.00 | 0.00 | 0.00 | 59 | 1011.7 |
| 20260502010520 | 15 | 90 | 0.0 | 0.0 | 0.00 | 0.00 | 0.00 | 60 | 1011.7 |
| 20260502010016 | 15 | 90 | 1.6 | 1.6 | 0.00 | 0.00 | 0.00 | 58 | 1011.6 |
| 20260502005514 | 15 | 89 | 0.0 | 0.0 | 0.00 | 0.00 | 0.00 | 58 | 1011.4 |
| 20260502005011 | 15 | 89 | 0.0 | 0.0 | 0.00 | 0.00 | 0.00 | 54 | 1011.3 |
| 20260502004507 | 16 | 89 | 1.6 | 1.6 | 0.00 | 0.00 | 0.00 | 56 | 1011.2 |
| 20260502004004 | 16 | 90 | 3.2 | 3.2 | 0.00 | 0.00 | 0.00 | 52 | 1011.0 |
| 20260502003501 | 16 | 78 | 0.0 | 0.0 | 0.00 | 0.00 | 0.00 | 52 | 1011.0 |
| 20260502002957 | 16 | 78 | 0.0 | 0.0 | 0.00 | 0.00 | 0.00 | 49 | 1011.1 |
| 20260502002455 | 17 | 77 | 0.0 | 1.6 | 0.00 | 0.00 | 0.00 | 49 | 1010.9 |
| 20260502001952 | 17 | 77 | 1.6 | 1.6 | 0.00 | 0.00 | 0.00 | 47 | 1010.7 |
| 20260502001449 | 17 | 85 | 3.2 | 4.8 | 0.00 | 0.00 | 0.00 | 47 | 1010.7 |
| 20260502000947 | 17 | 92 | 1.6 | 1.6 | 0.00 | 0.00 | 0.00 | 47 | 1010.8 |
| 20260502000446 | 17 | 93 | 0.0 | 1.6 | 0.00 | 0.00 | 0.00 | 46 | 1010.5 |
| 20260501235941 | 17 | 137 | 0.0 | 1.6 | 0.00 | 0.00 | 0.00 | 45 | 1010.7 |
| 20260501235437 | 17 | 120 | 1.6 | 1.6 | 0.00 | 0.00 | 0.00 | 44 | 1010.3 |
| 20260501234932 | 17 | 82 | 0.0 | 1.6 | 0.00 | 0.00 | 0.00 | 43 | 1010.4 |
| 20260501234429 | 17 | 118 | 0.0 | 0.0 | 0.00 | 0.00 | 0.00 | 44 | 1010.5 |
| 20260501233928 | 18 | 119 | 0.0 | 0.0 | 0.00 | 0.00 | 0.00 | 43 | 1010.0 |
| 20260501233425 | 18 | 123 | 1.6 | 3.2 | 0.00 | 0.00 | 0.00 | 43 | 1009.9 |
| 20260501232920 | 18 | 143 | 3.2 | 3.2 | 0.00 | 0.00 | 0.00 | 42 | 1009.9 |
| 20260501232418 | 18 | 120 | 1.6 | 3.2 | 0.00 | 0.00 | 0.00 | 42 | 1009.8 |
| 20260501231915 | 18 | 67 | 4.8 | 11.3 | 0.00 | 0.00 | 0.00 | 42 | 1010.0 |
| 20260501231414 | 18 | 97 | 1.6 | 1.6 | 0.00 | 0.00 | 0.00 | 42 | 1010.0 |
| 20260501230911 | 18 | 133 | 0.0 | 1.6 | 0.00 | 0.00 | 0.00 | 42 | 1009.9 |
| 20260501230410 | 18 | 164 | 0.0 | 0.0 | 0.00 | 0.00 | 0.00 | 42 | 1009.8 |
| 20260501225907 | 18 | 90 | 3.2 | 4.8 | 0.00 | 0.00 | 0.00 | 41 | 1010.0 |
| 20260501225404 | 19 | 142 | 9.7 | 12.9 | 0.00 | 0.00 | 0.00 | 39 | 1009.9 |
| 20260501224900 | 20 | 198 | 1.6 | 3.2 | 0.00 | 0.00 | 0.00 | 40 | 1009.8 |
| 20260501224358 | 20 | 139 | 1.6 | 3.2 | 0.00 | 0.00 | 0.00 | 39 | 1009.7 |
| 20260501223854 | 20 | 87 | 6.4 | 9.7 | 0.00 | 0.00 | 0.00 | 38 | 1009.9 |
| 20260501223350 | 20 | 137 | 4.8 | 6.4 | 0.00 | 0.00 | 0.00 | 37 | 1009.7 |
| 20260501222846 | 20 | 121 | 3.2 | 4.8 | 0.00 | 0.00 | 0.00 | 37 | 1009.9 |
| 20260501222344 | 20 | 128 | 3.2 | 3.2 | 0.00 | 0.00 | 0.00 | 38 | 1009.9 |
| 20260501221840 | 19 | 113 | 8.0 | 11.3 | 0.00 | 0.00 | 0.00 | 38 | 1010.0 |
| 20260501221337 | 19 | 200 | 4.8 | 6.4 | 0.00 | 0.00 | 0.00 | 39 | 1010.2 |
| 20260501220836 | 19 | 86 | 0.0 | 1.6 | 0.00 | 0.00 | 0.00 | 38 | 1010.2 |
| 20260501220333 | 19 | 197 | 4.8 | 9.7 | 0.00 | 0.00 | 0.00 | 39 | 1010.3 |
| 20260501215829 | 19 | 144 | 1.6 | 3.2 | 0.00 | 0.00 | 0.00 | 38 | 1010.4 |
| 20260501215325 | 19 | 119 | 3.2 | 4.8 | 0.00 | 0.00 | 0.00 | 39 | 1010.2 |
| 20260501214821 | 20 | 124 | 6.4 | 6.4 | 0.00 | 0.00 | 0.00 | 36 | 1010.5 |
| 20260501214316 | 19 | 110 | 0.0 | 0.0 | 0.00 | 0.00 | 0.00 | 40 | 1010.4 |
| 20260501213812 | 20 | 99 | 3.2 | 3.2 | 0.00 | 0.00 | 0.00 | 38 | 1010.4 |
| 20260501213309 | 20 | 84 | 12.9 | 16.1 | 0.00 | 0.00 | 0.00 | 36 | 1010.3 |
| 20260501212805 | 20 | 152 | 1.6 | 3.2 | 0.00 | 0.00 | 0.00 | 36 | 1010.6 |
| 20260501212305 | 20 | 149 | 1.6 | 3.2 | 0.00 | 0.00 | 0.00 | 38 | 1010.6 |
| 20260501211759 | 20 | 102 | 6.4 | 9.7 | 0.00 | 0.00 | 0.00 | 35 | 1010.8 |
| 20260501211256 | 20 | 120 | 6.4 | 9.7 | 0.00 | 0.00 | 0.00 | 36 | 1010.8 |
| 20260501210753 | 19 | 163 | 4.8 | 9.7 | 0.00 | 0.00 | 0.00 | 37 | 1010.5 |
| 20260501210249 | 18 | 157 | 3.2 | 3.2 | 0.00 | 0.00 | 0.00 | 38 | 1010.7 |
| 20260501205746 | 18 | 156 | 3.2 | 3.2 | 0.00 | 0.00 | 0.00 | 37 | 1010.9 |
| 20260501205243 | 19 | 79 | 4.8 | 4.8 | 0.00 | 0.00 | 0.00 | 38 | 1010.9 |
| 20260501204740 | 19 | 121 | 4.8 | 6.4 | 0.00 | 0.00 | 0.00 | 38 | 1010.8 |
| 20260501204237 | 20 | 136 | 4.8 | 6.4 | 0.00 | 0.00 | 0.00 | 35 | 1011.1 |
| 20260501203733 | 20 | 142 | 6.4 | 9.7 | 0.00 | 0.00 | 0.00 | 37 | 1010.8 |
| 20260501203230 | 19 | 99 | 6.4 | 11.3 | 0.00 | 0.00 | 0.00 | 37 | 1010.9 |
| 20260501202727 | 19 | 116 | 1.6 | 3.2 | 0.00 | 0.00 | 0.00 | 38 | 1011.0 |
| 20260501202224 | 20 | 120 | 3.2 | 3.2 | 0.00 | 0.00 | 0.00 | 37 | 1011.2 |
| 20260501201721 | 19 | 87 | 1.6 | 3.2 | 0.00 | 0.00 | 0.00 | 38 | 1011.3 |
| 20260501201218 | 19 | 124 | 3.2 | 3.2 | 0.00 | 0.00 | 0.00 | 37 | 1011.3 |
| 20260501200714 | 20 | 133 | 3.2 | 3.2 | 0.00 | 0.00 | 0.00 | 37 | 1011.3 |
| 20260501200212 | 20 | 158 | 1.6 | 3.2 | 0.00 | 0.00 | 0.00 | 37 | 1011.4 |
| 20260501195709 | 20 | 110 | 3.2 | 4.8 | 0.00 | 0.00 | 0.00 | 36 | 1011.5 |
| 20260501195205 | 20 | 204 | 4.8 | 6.4 | 0.00 | 0.00 | 0.00 | 33 | 1011.5 |
| 20260501194701 | 20 | 132 | 3.2 | 4.8 | 0.00 | 0.00 | 0.00 | 35 | 1011.8 |
| 20260501194156 | 20 | 110 | 3.2 | 3.2 | 0.00 | 0.00 | 0.00 | 36 | 1011.9 |
| 20260501193653 | 20 | 150 | 1.6 | 1.6 | 0.00 | 0.00 | 0.00 | 34 | 1011.8 |
| 20260501193152 | 20 | 118 | 3.2 | 3.2 | 0.00 | 0.00 | 0.00 | 34 | 1012.0 |
| 20260501192649 | 21 | 116 | 8.0 | 11.3 | 0.00 | 0.00 | 0.00 | 32 | 1012.2 |
| 20260501192146 | 20 | 134 | 1.6 | 1.6 | 0.00 | 0.00 | 0.00 | 34 | 1012.1 |
| 20260501191644 | 20 | 89 | 4.8 | 6.4 | 0.00 | 0.00 | 0.00 | 33 | 1012.4 |
| 20260501191141 | 20 | 89 | 4.8 | 4.8 | 0.00 | 0.00 | 0.00 | 36 | 1012.6 |
| 20260501190637 | 20 | 74 | 1.6 | 3.2 | 0.00 | 0.00 | 0.00 | 33 | 1012.7 |
| 20260501190137 | 20 | 201 | 8.0 | 11.3 | 0.00 | 0.00 | 0.00 | 36 | 1012.6 |
| 20260501185634 | 20 | 111 | 6.4 | 9.7 | 0.00 | 0.00 | 0.00 | 36 | 1012.7 |
| 20260501185130 | 20 | 115 | 1.6 | 1.6 | 0.00 | 0.00 | 0.00 | 36 | 1012.8 |
| 20260501184627 | 19 | 152 | 1.6 | 3.2 | 0.00 | 0.00 | 0.00 | 36 | 1013.0 |
| 20260501184121 | 20 | 113 | 3.2 | 4.8 | 0.00 | 0.00 | 0.00 | 35 | 1013.1 |
| 20260501183618 | 20 | 89 | 6.4 | 9.7 | 0.00 | 0.00 | 0.00 | 33 | 1013.2 |
| 20260501183114 | 20 | 137 | 4.8 | 4.8 | 0.00 | 0.00 | 0.00 | 34 | 1013.0 |
| 20260501182611 | 19 | 71 | 6.4 | 6.4 | 0.00 | 0.00 | 0.00 | 34 | 1013.1 |
| 20260501182108 | 19 | 191 | 4.8 | 6.4 | 0.00 | 0.00 | 0.00 | 33 | 1013.2 |
| 20260501181605 | 19 | 171 | 1.6 | 1.6 | 0.00 | 0.00 | 0.00 | 34 | 1013.5 |
| 20260501181102 | 18 | 199 | 3.2 | 6.4 | 0.00 | 0.00 | 0.00 | 37 | 1013.5 |
| 20260501180600 | 19 | 176 | 3.2 | 6.4 | 0.00 | 0.00 | 0.00 | 34 | 1013.6 |
| 20260501180055 | 20 | 105 | 3.2 | 3.2 | 0.00 | 0.00 | 0.00 | 34 | 1013.8 |
| 20260501175553 | 18 | 116 | 1.6 | 1.6 | 0.00 | 0.00 | 0.00 | 37 | 1013.9 |
| 20260501175050 | 18 | 188 | 4.8 | 6.4 | 0.00 | 0.00 | 0.00 | 36 | 1013.8 |
| 20260501174547 | 18 | 168 | 9.7 | 12.9 | 0.00 | 0.00 | 0.00 | 36 | 1013.9 |
| 20260501174045 | 18 | 130 | 4.8 | 4.8 | 0.00 | 0.00 | 0.00 | 39 | 1013.8 |
| 20260501173541 | 18 | 84 | 3.2 | 4.8 | 0.00 | 0.00 | 0.00 | 36 | 1014.1 |
| 20260501173038 | 18 | 99 | 4.8 | 4.8 | 0.00 | 0.00 | 0.00 | 36 | 1014.1 |
| 20260501172533 | 17 | 173 | 3.2 | 3.2 | 0.00 | 0.00 | 0.00 | 37 | 1014.4 |
| 20260501172029 | 17 | 104 | 6.4 | 9.7 | 0.00 | 0.00 | 0.00 | 37 | 1014.4 |
| 20260501171526 | 17 | 183 | 1.6 | 4.8 | 0.00 | 0.00 | 0.00 | 37 | 1014.5 |
| 20260501171022 | 17 | 197 | 4.8 | 4.8 | 0.00 | 0.00 | 0.00 | 34 | 1014.6 |
| 20260501170519 | 17 | 127 | 4.8 | 4.8 | 0.00 | 0.00 | 0.00 | 38 | 1014.6 |
| 20260501170016 | 17 | 107 | 4.8 | 4.8 | 0.00 | 0.00 | 0.00 | 37 | 1015.0 |
| 20260501165515 | 17 | 143 | 6.4 | 6.4 | 0.00 | 0.00 | 0.00 | 36 | 1014.8 |
| 20260501165012 | 17 | 154 | 4.8 | 6.4 | 0.00 | 0.00 | 0.00 | 38 | 1014.7 |
| 20260501164509 | 16 | 174 | 3.2 | 3.2 | 0.00 | 0.00 | 0.00 | 37 | 1015.1 |
| 20260501164006 | 17 | 211 | 4.8 | 6.4 | 0.00 | 0.00 | 0.00 | 38 | 1015.0 |
| 20260501163502 | 17 | 144 | 3.2 | 3.2 | 0.00 | 0.00 | 0.00 | 38 | 1015.1 |
| 20260501162958 | 17 | 53 | 6.4 | 9.7 | 0.00 | 0.00 | 0.00 | 37 | 1015.4 |
| 20260501162455 | 17 | 113 | 1.6 | 3.2 | 0.00 | 0.00 | 0.00 | 43 | 1015.4 |
| 20260501161952 | 16 | 203 | 1.6 | 4.8 | 0.00 | 0.00 | 0.00 | 40 | 1015.6 |
| 20260501161449 | 16 | 118 | 3.2 | 4.8 | 0.00 | 0.00 | 0.00 | 40 | 1015.6 |
| 20260501160946 | 16 | 99 | 3.2 | 3.2 | 0.00 | 0.00 | 0.00 | 42 | 1015.5 |